| time (UTC) | temp C | wind direction | speed KPH | gust KPH | rain 1hr cm | rain 24hr cm | rain mn cm | humidity % | barometer mb |
| 20260502232729 | 5 | 33 | 3.2 | 4.8 | 0.00 | 0.03 | 0.00 | 76 | 1016.0 |
| 20260502231230 | 5 | 297 | 0.0 | 3.2 | 0.00 | 0.03 | 0.00 | 75 | 1016.0 |
| 20260502230433 | 5 | 289 | 1.6 | 6.4 | 0.00 | 0.03 | 0.00 | 74 | 1015.9 |
| 20260502224924 | 5 | 303 | 3.2 | 6.4 | 0.00 | 0.03 | 0.00 | 73 | 1015.9 |
| 20260502222729 | 5 | 262 | 3.2 | 9.7 | 0.00 | 0.03 | 0.00 | 72 | 1015.9 |
| 20260502221230 | 5 | 286 | 3.2 | 8.0 | 0.00 | 0.03 | 0.00 | 71 | 1016.0 |
| 20260502215730 | 5 | 294 | 1.6 | 8.0 | 0.00 | 0.03 | 0.00 | 74 | 1015.8 |
| 20260502214230 | 5 | 349 | 3.2 | 8.0 | 0.00 | 0.03 | 0.00 | 74 | 1015.8 |
| 20260502213419 | 5 | 346 | 1.6 | 6.4 | 0.00 | 0.03 | 0.00 | 74 | 1015.8 |
| 20260502211230 | 5 | 359 | 4.8 | 12.9 | 0.00 | 0.03 | 0.00 | 74 | 1015.8 |
| 20260502210420 | 5 | 335 | 4.8 | 11.3 | 0.00 | 0.03 | 0.00 | 73 | 1015.8 |
| 20260502205637 | 5 | 50 | 6.4 | 16.1 | 0.00 | 0.03 | 0.00 | 73 | 1015.8 |
| 20260502202727 | 4 | 45 | 8.0 | 16.1 | 0.00 | 0.03 | 0.00 | 73 | 1015.9 |
| 20260502201227 | 4 | 356 | 4.8 | 14.5 | 0.00 | 0.03 | 0.00 | 75 | 1016.0 |
| 20260502195728 | 4 | 300 | 4.8 | 12.9 | 0.00 | 0.03 | 0.00 | 77 | 1016.0 |
| 20260502194227 | 3 | 348 | 8.0 | 16.1 | 0.00 | 0.03 | 0.00 | 76 | 1016.2 |
| 20260502192727 | 4 | 284 | 11.3 | 24.1 | 0.00 | 0.03 | 0.00 | 77 | 1016.1 |
| 20260502191229 | 5 | 291 | 6.4 | 19.3 | 0.00 | 0.03 | 0.00 | 74 | 1015.9 |
| 20260502185729 | 5 | 335 | 8.0 | 17.7 | 0.00 | 0.03 | 0.00 | 72 | 1016.1 |
| 20260502184225 | 5 | 34 | 9.7 | 22.5 | 0.00 | 0.03 | 0.00 | 73 | 1016.2 |
| 20260502182723 | 5 | 20 | 8.0 | 19.3 | 0.00 | 0.03 | 0.00 | 75 | 1016.3 |
| 20260502181223 | 5 | 328 | 8.0 | 16.1 | 0.00 | 0.03 | 0.00 | 78 | 1016.2 |
| 20260502164211 | 5 | 316 | 8.0 | 16.1 | 0.00 | 0.08 | 0.00 | 74 | 1016.3 |
| 20260502162711 | 5 | 8 | 6.4 | 16.1 | 0.00 | 0.08 | 0.00 | 76 | 1016.4 |
| 20260502161910 | 5 | 316 | 4.8 | 12.9 | 0.00 | 0.08 | 0.00 | 77 | 1016.3 |
| 20260502151205 | 5 | 39 | 6.4 | 19.3 | 0.00 | 0.08 | 0.00 | 78 | 1016.1 |
| 20260502122703 | 1 | 349 | 3.2 | 11.3 | 0.00 | 0.18 | 0.00 | 88 | 1015.4 |
| 20260502121201 | 0 | 284 | 3.2 | 11.3 | 0.00 | 0.23 | 0.00 | 88 | 1015.5 |
| 20260502115659 | 0 | 340 | 3.2 | 9.7 | 0.00 | 0.23 | 0.00 | 89 | 1015.5 |
| 20260502114159 | 0 | 278 | 1.6 | 6.4 | 0.00 | 0.23 | 0.00 | 89 | 1015.4 |
| 20260502112658 | 0 | 262 | 0.0 | 1.6 | 0.00 | 0.23 | 0.00 | 90 | 1015.6 |
| 20260502111159 | 0 | 316 | 0.0 | 3.2 | 0.00 | 0.23 | 0.00 | 89 | 1015.4 |
| 20260502105656 | 0 | 216 | 0.0 | 1.6 | 0.00 | 0.23 | 0.00 | 90 | 1015.0 |
| 20260502104157 | 0 | 207 | 0.0 | 3.2 | 0.00 | 0.23 | 0.00 | 90 | 1014.9 |
| 20260502102656 | 0 | 216 | 0.0 | 3.2 | 0.00 | 0.23 | 0.00 | 90 | 1015.2 |
| 20260502101157 | 0 | 203 | 0.0 | 3.2 | 0.00 | 0.23 | 0.00 | 89 | 1015.0 |
| 20260502100356 | 0 | 217 | 1.6 | 4.8 | 0.00 | 0.23 | 0.00 | 90 | 1014.9 |
| 20260502091155 | 0 | 268 | 0.0 | 3.2 | 0.00 | 0.23 | 0.00 | 90 | 1014.9 |
| 20260502065636 | 1 | 292 | 1.6 | 4.8 | 0.00 | 0.23 | 0.00 | 94 | 1014.8 |
| 20260502064136 | 1 | 243 | 0.0 | 3.2 | 0.00 | 0.23 | 0.00 | 94 | 1015.0 |
| 20260502063347 | 2 | 216 | 1.6 | 3.2 | 0.00 | 0.23 | 0.00 | 94 | 1014.9 |
| 20260502061132 | 2 | 263 | 1.6 | 4.8 | 0.00 | 0.23 | 0.00 | 94 | 1015.1 |
| 20260502060337 | 2 | 242 | 0.0 | 1.6 | 0.00 | 0.23 | 0.00 | 94 | 1015.1 |
| 20260502054127 | 2 | 226 | 0.0 | 1.6 | 0.00 | 0.23 | 0.00 | 93 | 1015.4 |
| 20260502053326 | 2 | 234 | 0.0 | 1.6 | 0.00 | 0.23 | 0.00 | 93 | 1015.2 |
| 20260502051127 | 2 | 231 | 0.0 | 3.2 | 0.00 | 0.23 | 0.00 | 93 | 1015.4 |
| 20260502045624 | 2 | 234 | 0.0 | 3.2 | 0.00 | 0.23 | 0.00 | 93 | 1015.5 |
| 20260502044813 | 2 | 238 | 0.0 | 3.2 | 0.03 | 0.23 | 0.00 | 92 | 1015.2 |
| 20260502042623 | 3 | 242 | 0.0 | 1.6 | 0.03 | 0.23 | 0.00 | 93 | 1015.5 |
| 20260502041124 | 3 | 217 | 0.0 | 1.6 | 0.03 | 0.23 | 0.00 | 93 | 1015.5 |
| 20260502035623 | 2 | 212 | 0.0 | 1.6 | 0.03 | 0.23 | 0.23 | 92 | 1015.6 |
| 20260502034122 | 2 | 207 | 0.0 | 0.0 | 0.00 | 0.20 | 0.20 | 91 | 1015.5 |
| 20260502033324 | 3 | 206 | 0.0 | 0.0 | 0.00 | 0.20 | 0.20 | 91 | 1015.6 |
| 20260502031122 | 3 | 209 | 0.0 | 0.0 | 0.00 | 0.20 | 0.20 | 90 | 1015.6 |
| 20260502025622 | 3 | 209 | 0.0 | 0.0 | 0.00 | 0.20 | 0.20 | 90 | 1015.5 |
| 20260502024122 | 4 | 209 | 0.0 | 0.0 | 0.00 | 0.20 | 0.20 | 89 | 1015.4 |
| 20260502022622 | 4 | 187 | 0.0 | 0.0 | 0.00 | 0.20 | 0.20 | 89 | 1015.1 |
| 20260502021122 | 4 | 218 | 0.0 | 0.0 | 0.00 | 0.20 | 0.20 | 88 | 1015.1 |
| 20260502015623 | 4 | 218 | 0.0 | 0.0 | 0.00 | 0.20 | 0.20 | 87 | 1014.9 |
| 20260502014122 | 4 | 218 | 0.0 | 0.0 | 0.00 | 0.20 | 0.20 | 87 | 1014.8 |
| 20260502012622 | 4 | 214 | 0.0 | 0.0 | 0.00 | 0.20 | 0.20 | 86 | 1014.6 |
| 20260502011822 | 5 | 323 | 0.0 | 0.0 | 0.00 | 0.20 | 0.20 | 85 | 1014.2 |
| 20260502005620 | 5 | 323 | 0.0 | 0.0 | 0.00 | 0.20 | 0.20 | 84 | 1014.2 |
| 20260502004808 | 5 | 329 | 0.0 | 4.8 | 0.00 | 0.20 | 0.20 | 84 | 1014.3 |
| 20260502002620 | 5 | 312 | 1.6 | 6.4 | 0.00 | 0.20 | 0.20 | 83 | 1014.3 |
| 20260502001815 | 5 | 313 | 3.2 | 9.7 | 0.00 | 0.20 | 0.20 | 83 | 1014.3 |
| 20260501235620 | 5 | 328 | 3.2 | 9.7 | 0.00 | 0.20 | 0.20 | 83 | 1013.8 |
| 20260501234120 | 5 | 293 | 4.8 | 9.7 | 0.00 | 0.20 | 0.20 | 83 | 1013.7 |